TimeCDT,TemperatureF,Dew PointF,Humidity,Sea Level PressureIn,VisibilityMPH,Wind Direction,Wind SpeedMPH,Gust SpeedMPH,PrecipitationIn,Events,Conditions,WindDirDegrees,DateUTC
12:15 AM,68.0,60.8,78,30.01,10.0,SSE,5.8,-,N/A,,Clear,160,2013-08-20 05:15:00
12:35 AM,66.2,60.8,83,30.01,10.0,SSE,6.9,-,N/A,,Clear,160,2013-08-20 05:35:00
12:55 AM,66.2,60.8,83,30.01,10.0,SSE,5.8,-,N/A,,Clear,160,2013-08-20 05:55:00
1:15 AM,66.2,60.8,83,30.01,10.0,SSE,5.8,-,N/A,,Clear,160,2013-08-20 06:15:00
1:35 AM,68.0,62.6,83,30.00,10.0,South,6.9,-,N/A,,Mostly Cloudy,170,2013-08-20 06:35:00
1:55 AM,68.0,62.6,83,30.00,10.0,SSE,6.9,-,N/A,,Overcast,160,2013-08-20 06:55:00
2:15 AM,68.0,62.6,83,29.99,10.0,SSE,8.1,-,N/A,,Overcast,160,2013-08-20 07:15:00
2:35 AM,68.0,62.6,83,29.99,10.0,South,9.2,-,N/A,,Mostly Cloudy,170,2013-08-20 07:35:00
2:55 AM,68.0,60.8,78,29.99,10.0,South,5.8,-,N/A,,Clear,170,2013-08-20 07:55:00
3:15 AM,66.2,60.8,83,30.00,10.0,South,6.9,-,N/A,,Scattered Clouds,170,2013-08-20 08:15:00
3:35 AM,66.2,60.8,83,30.00,10.0,South,5.8,-,N/A,,Mostly Cloudy,170,2013-08-20 08:35:00
3:55 AM,66.2,60.8,83,30.00,10.0,South,6.9,-,N/A,,Overcast,170,2013-08-20 08:55:00
4:15 AM,68.0,60.8,78,30.00,10.0,South,6.9,-,N/A,,Overcast,170,2013-08-20 09:15:00
4:35 AM,68.0,60.8,78,30.00,10.0,South,6.9,-,N/A,,Overcast,170,2013-08-20 09:35:00
4:55 AM,68.0,60.8,78,29.99,10.0,South,8.1,-,N/A,,Mostly Cloudy,170,2013-08-20 09:55:00
5:15 AM,68.0,60.8,78,30.00,-9999.0,South,6.9,-,N/A,,Mostly Cloudy,170,2013-08-20 10:15:00
5:35 AM,68.0,60.8,78,30.00,10.0,South,8.1,-,N/A,,Overcast,180,2013-08-20 10:35:00
5:55 AM,68.0,60.8,78,30.00,10.0,SSE,6.9,-,N/A,,Overcast,160,2013-08-20 10:55:00
6:15 AM,66.2,60.8,83,30.00,10.0,SSE,6.9,-,N/A,,Mostly Cloudy,160,2013-08-20 11:15:00
6:35 AM,66.2,60.8,83,30.00,10.0,SSE,6.9,-,N/A,,Overcast,160,2013-08-20 11:35:00
6:55 AM,68.0,60.8,78,30.01,10.0,SSE,8.1,-,N/A,,Overcast,160,2013-08-20 11:55:00
7:15 AM,68.0,60.8,78,30.01,10.0,SSE,9.2,-,N/A,,Mostly Cloudy,160,2013-08-20 12:15:00
7:35 AM,68.0,62.6,83,30.01,10.0,SSE,9.2,-,N/A,,Scattered Clouds,160,2013-08-20 12:35:00
8:15 AM,69.8,62.6,78,30.01,10.0,South,11.5,-,N/A,,Scattered Clouds,170,2013-08-20 13:15:00
8:35 AM,69.8,62.6,78,30.01,10.0,South,10.4,-,N/A,,Scattered Clouds,170,2013-08-20 13:35:00
8:55 AM,71.6,62.6,73,30.01,10.0,South,10.4,-,N/A,,Partly Cloudy,170,2013-08-20 13:55:00
9:15 AM,71.6,64.4,78,30.01,10.0,South,9.2,17.3,N/A,,Scattered Clouds,180,2013-08-20 14:15:00
9:35 AM,73.4,64.4,73,30.01,10.0,South,13.8,-,N/A,,Partly Cloudy,180,2013-08-20 14:35:00
9:55 AM,75.2,66.2,73,30.01,10.0,South,13.8,-,N/A,,Clear,180,2013-08-20 14:55:00
10:15 AM,75.2,66.2,73,30.01,10.0,South,12.7,-,N/A,,Mostly Cloudy,180,2013-08-20 15:15:00
10:35 AM,75.2,66.2,73,30.01,10.0,South,13.8,-,N/A,,Overcast,170,2013-08-20 15:35:00
10:55 AM,77.0,66.2,69,30.01,10.0,South,12.7,-,N/A,,Mostly Cloudy,180,2013-08-20 15:55:00
11:15 AM,78.8,66.2,65,30.00,9.0,South,15.0,-,N/A,,Mostly Cloudy,180,2013-08-20 16:15:00
11:35 AM,78.8,66.2,65,30.00,10.0,South,17.3,-,N/A,,Partly Cloudy,180,2013-08-20 16:35:00
11:55 AM,80.6,68.0,65,30.00,10.0,South,18.4,-,N/A,,Clear,170,2013-08-20 16:55:00
12:15 PM,80.6,68.0,65,30.00,10.0,South,15.0,-,N/A,,Scattered Clouds,170,2013-08-20 17:15:00
12:35 PM,82.4,68.0,62,29.99,10.0,South,12.7,20.7,N/A,,Scattered Clouds,190,2013-08-20 17:35:00
12:55 PM,82.4,68.0,62,29.99,10.0,South,17.3,-,N/A,,Partly Cloudy,180,2013-08-20 17:55:00
1:15 PM,84.2,69.8,62,29.98,10.0,South,17.3,-,N/A,,Clear,170,2013-08-20 18:15:00
1:35 PM,84.2,69.8,62,29.98,10.0,South,20.7,-,N/A,,Partly Cloudy,170,2013-08-20 18:35:00
1:55 PM,84.2,69.8,62,29.97,10.0,South,19.6,-,N/A,,Partly Cloudy,180,2013-08-20 18:55:00
2:15 PM,84.2,69.8,62,29.97,10.0,South,18.4,25.3,N/A,,Partly Cloudy,170,2013-08-20 19:15:00
2:35 PM,86.0,69.8,58,29.97,10.0,South,16.1,24.2,N/A,,Clear,180,2013-08-20 19:35:00
2:55 PM,86.0,69.8,58,29.96,9.0,South,18.4,25.3,N/A,,Clear,190,2013-08-20 19:55:00
3:15 PM,86.0,69.8,58,29.96,10.0,South,20.7,27.6,N/A,,Clear,190,2013-08-20 20:15:00
3:35 PM,86.0,69.8,58,29.96,10.0,South,15.0,25.3,N/A,,Clear,190,2013-08-20 20:35:00
3:55 PM,86.0,69.8,58,29.95,10.0,South,20.7,27.6,N/A,,Partly Cloudy,190,2013-08-20 20:55:00
4:15 PM,86.0,69.8,58,29.95,9.0,South,18.4,24.2,N/A,,Partly Cloudy,180,2013-08-20 21:15:00
4:35 PM,86.0,69.8,58,29.95,10.0,South,18.4,-,N/A,,Scattered Clouds,180,2013-08-20 21:35:00
4:55 PM,86.0,69.8,58,29.95,10.0,South,16.1,27.6,N/A,,Partly Cloudy,180,2013-08-20 21:55:00
5:15 PM,86.0,69.8,58,29.95,10.0,South,17.3,25.3,N/A,,Partly Cloudy,180,2013-08-20 22:15:00
5:35 PM,84.2,68.0,58,29.95,10.0,South,17.3,25.3,N/A,,Partly Cloudy,180,2013-08-20 22:35:00
5:55 PM,84.2,68.0,58,29.95,9.0,South,16.1,21.9,N/A,,Partly Cloudy,190,2013-08-20 22:55:00
6:15 PM,84.2,68.0,58,29.95,9.0,South,13.8,-,N/A,,Scattered Clouds,180,2013-08-20 23:15:00
6:35 PM,84.2,68.0,58,29.95,9.0,South,15.0,-,N/A,,Partly Cloudy,180,2013-08-20 23:35:00
6:55 PM,84.2,68.0,58,29.95,8.0,South,13.8,-,N/A,,Clear,180,2013-08-20 23:55:00
7:15 PM,82.4,68.0,62,29.95,10.0,South,12.7,-,N/A,,Clear,170,2013-08-21 00:15:00
7:35 PM,80.6,68.0,65,29.95,10.0,South,10.4,17.3,N/A,,Clear,180,2013-08-21 00:35:00
7:55 PM,80.6,68.0,65,29.95,10.0,South,8.1,-,N/A,,Partly Cloudy,170,2013-08-21 00:55:00
8:15 PM,78.8,68.0,69,29.96,10.0,SSE,6.9,-,N/A,,Partly Cloudy,160,2013-08-21 01:15:00
8:35 PM,77.0,68.0,74,29.96,10.0,SSE,6.9,-,N/A,,Partly Cloudy,160,2013-08-21 01:35:00
8:55 PM,77.0,68.0,74,29.96,10.0,SSE,8.1,-,N/A,,Partly Cloudy,160,2013-08-21 01:55:00
9:15 PM,77.0,68.0,74,29.97,10.0,SSE,8.1,-,N/A,,Clear,160,2013-08-21 02:15:00
9:35 PM,75.2,68.0,78,29.97,10.0,SSE,9.2,-,N/A,,Clear,150,2013-08-21 02:35:00
9:55 PM,75.2,68.0,78,29.97,10.0,SSE,9.2,-,N/A,,Clear,150,2013-08-21 02:55:00
10:15 PM,75.2,68.0,78,29.98,10.0,SSE,10.4,-,N/A,,Clear,150,2013-08-21 03:15:00
10:35 PM,75.2,66.2,73,29.98,10.0,SSE,10.4,17.3,N/A,,Clear,150,2013-08-21 03:35:00
10:55 PM,75.2,66.2,73,29.98,10.0,South,9.2,-,N/A,,Clear,180,2013-08-21 03:55:00
11:15 PM,75.2,66.2,73,29.98,10.0,South,9.2,-,N/A,,Clear,170,2013-08-21 04:15:00
11:35 PM,73.4,66.2,78,29.98,10.0,South,11.5,-,N/A,,Clear,170,2013-08-21 04:35:00
11:55 PM,73.4,66.2,78,29.98,10.0,South,11.5,-,N/A,,Clear,180,2013-08-21 04:55:00